SCP
0 0 0 0 0 0 0 0 0 0 0 0 0 0 0 0 0 0 0 0 0 0 0 0 0 0 0 0 0 0 0 0 0 0 0 0 0 0 0 0 0 0 0
0 0 0 0 0 0 0 0 0 0 0 0 0 0 0 0 0 0 0 0 0 0 0 0 0 0 0 0 0 0 0 0 0 0 0 0 0 0 0 0 0 0 0
0 0 0 0 0 0 0 0 0 0 0 0 0 0 0 0 0 0 0 0 0 0 0 0 0 0 0 0 0 0 0 0 0 0 0 0 0 0 0 0 0 0 0
0 0 0 0 0 0 0 0 0 0 0 0 0 0 0 0 0 0 0 0 0 0 0 0 0 0 0 0 0 0 0 0 0 0 0 0 0 0 0 0 0 0 0
0 0 0 0 0 0 0 0 0 0 0 0 0 0 0 0 0 0 0 0 0 0 0 0 0 0 0 0 0 0 0 0 0 0 0 0 0 0 0 0 0 0 0
0 0 0 0 0 0 0 0 0 0 0 0 0 0 0 0 0 0 0 0 0 0 0 0 0 0 0 0 0 0 0 0 0 0 0 0 0 0 0 0 0 0 0
0 0 0 0 0 0 0 0 0 0 0 0 0 0 0 0 0 0 0 0 0 0 0 0 0 0 0 0 0 0 0 0 0 0 0 0 0 0 0 0 0 0 0
0 0 0 0 0 0 0 0 0 0 0 0 0 0 0 0 0 0 0 0 0 0 0 0 0 0 0 0 0 0 0 0 0 0 0 0 0 0 0 0 0 0 0
0 0 0 0 0 0 0 0 0 0 0 0 0 0 0 0 0 0 0 0 0 0 0 0 0 0 0 0 0 0 0 0 0 0 0 0 0 0 0 0 0 0 0
0 0 0 0 0 0 0 0 0 0 0 0 0 0 0 0 0 0 0 0 0 0 0 0 0 0 0 0 0 0 0 0 0 0 0 0 0 0 0 0 0 0 0
0 0 0 0 0 0 0 0 0 0 0 0 0 0 0 0 0 0 0 0 0 0 0 0 0 0 0 0 0 0 0 0 0 0 0 0 0 0 0 0 0 0 0
0 0 0 0 0 0 0 0 0 0 0 0 0 0 0 0 0 0 0 0 0 0 0 0 0 0 0 0 0 0 0 0 0 0 0 0 0 0 0 0 0 0 0
0 0 0 0 0 0 0 0 0 0 0 0 0 0 0 0 0 0 0 0 0 0 0 0 0 0 0 0 0 0 0 0 0 0 0 0 0 0 0 0 0 0 0
0 0 0 0 0 0 0 0 0 0 0 0 0 0 0 0 0 0 0 0 0 0 0 0 0 0 0 0 0 0 0 0 0 0 0 0 0 0 0 0 0 0 0
0 0 0 0 0 0 0 0 0 0 0 0 0 0 0 0 0 0 0 0 0 0 0 0 0 0 0 0 0 0 0 0 0 0 0 0 0 0 0 0 0 0 0
0 0 0 0 0 0 0 0 0 0 0 0 0 0 0 0 0 0 0 0 0 0 0 0 0 0 0 0 0 0 0 0 0 0 0 0 0 0 0 0 0 0 0
0 0 0 0 0 0 0 0 0 0 0 0 0 0 0 0 0 0 0 0 0 0 0 0 0 0 0 0 0 0 0 0 0 0 0 0 0 0 0 0 0 0 0
0 0 0 0 0 0 0 0 0 0 0 0 0 0 -0 -0 0 0 0 0 0 0 0 0 0 0 0 0 0 0 0 0 0 0 0 0 0 0 0 0 0 0 0
0 0 0 0 0 0 0 0 0 0 0 0 0 0 -0 0 0 0 0 0 0 0 0 0 0 0 0 0 0 0 0 0 0 0 0 0 0 0 0 0 0 0 0
0 0 0 0 0 0 0 0 0 0 0 0 0 0 0 0 0 0 0 0 0 0 0 0 0 0 0 0 0 0 0 0 0 0 0 0 0 0 0 0 0 0 0
0 0 0 0 0 0 0 0 0 0 0 0 0 0 0 0 0 0 0 0 0 0 0 0 0 0 0 0 0 0 0 0 0 0 0 0 0 0 0 0 0 0 0
0 0 0 0 0 0 0 0 0 0 0 0 0 0 0 0 0 0 0 0 0 0 0 0 0 0 0 0 0 0 0 0 0 0 0 0 0 0 0 0 0 0 0
0 0 0 0 0 0 0 0 0 0 0 0 0 0 0 0 0 0 0 0 0 0 0 0 0 0 0 0 0 0 0 0 0 0 0 0 0 0 0 0 0 0 0
0 0 0 0 0 0 0 0 0 0 0 0 0 0 0 0 0 0 0 0 0 0 0 0 0 0 0 0 0 0 0 0 0 0 0 0 0 0 0 0 0 0 0
0 0 0 0 0 0 0 0 0 0 0 0 0 0 0 0 0 0 0 0 0 0 0 0 0 0 0 0 0 0 0 0 0 0 0 0 0 0 0 0 0 0 0
0 0 0 0 0 0 0 0 0 0 0 0 0 0 0 0 0 0 0 0 0 0 0 0 0 0 0 0 0 0 0 0 0 0 0 0 0 0 0 0 0 0 0
Wind_Speed
9 9 9 8 8 8 7 7 5 4 4 3 2 2 4 6 6 6 6 6 6 5 5 5 5 5 3 3 3 3 4 4 8 6 4 4 6 8 9 8 9 9 10
8 9 8 8 8 7 7 6 6 6 6 6 7 8 9 8 7 6 6 5 5 5 5 5 6 6 6 5 4 5 5 5 6 10 5 4 6 8 8 9 10 10 7
8 9 9 8 8 8 7 7 7 7 7 7 7 7 7 6 5 4 3 4 4 5 5 6 7 6 7 6 6 6 6 7 6 7 8 5 5 6 7 9 10 8 10
9 9 9 7 7 7 7 7 7 6 7 6 6 6 5 4 3 3 3 4 5 6 6 6 7 7 7 8 7 7 7 7 7 8 9 7 6 6 6 7 8 6 8
8 8 7 6 7 7 6 6 6 6 6 5 5 4 2 2 1 2 3 5 6 7 8 8 8 12 15 11 10 8 7 7 8 8 9 8 7 6 6 6 9 8 8
8 7 6 5 5 5 5 5 6 5 5 5 4 2 1 1 1 4 6 5 6 8 9 9 10 11 14 18 21 20 17 13 10 9 8 9 9 8 7 8 8 9 8
6 5 4 4 4 4 6 6 5 4 4 4 3 2 2 3 4 6 10 7 7 8 8 8 10 11 14 10 15 19 18 21 20 13 11 10 10 9 9 11 10 10 10
4 3 3 4 5 5 6 5 4 3 3 2 2 3 2 3 5 7 11 7 7 8 9 9 10 11 11 12 12 12 11 12 13 9 8 10 10 10 10 10 10 9 9
3 3 4 5 6 5 5 4 3 2 3 2 3 3 3 3 5 7 9 6 6 9 9 10 11 10 13 16 13 11 11 10 11 11 12 12 13 14 11 6 5 6 6
4 4 5 6 6 5 4 3 2 2 2 3 4 4 3 3 6 9 11 4 7 8 9 9 12 12 16 17 11 9 10 9 8 8 8 8 7 6 6 4 4 4 4
4 6 6 6 5 4 3 2 3 3 4 4 4 4 4 4 7 10 12 6 7 8 8 8 8 15 17 16 12 8 9 10 7 6 5 5 4 3 3 3 3 3 3
5 6 5 5 4 4 4 3 3 4 4 4 4 4 4 5 6 9 14 13 11 8 8 7 9 16 17 15 10 11 13 9 4 4 4 3 3 3 3 4 5 4 4
5 5 5 5 4 3 3 3 3 3 2 3 3 4 5 5 6 11 13 15 16 9 7 13 15 16 13 9 10 12 9 5 4 4 4 3 3 3 3 4 4 4 3
5 4 4 4 3 2 2 2 2 1 1 2 3 4 5 5 5 6 7 8 11 10 8 11 14 13 10 9 8 6 5 4 4 4 5 4 3 2 3 3 3 4 3
5 4 3 2 2 2 1 2 2 2 3 2 2 2 4 5 7 12 8 6 6 7 8 5 5 7 7 6 6 5 5 5 5 5 4 4 3 3 3 3 3 3 4
5 3 2 2 2 2 2 1 3 4 5 5 5 5 5 6 10 12 13 13 12 13 7 6 6 7 7 6 6 6 5 5 5 5 4 4 4 4 4 4 4 4 5
4 3 2 2 2 2 2 2 2 3 4 6 7 8 8 9 9 11 13 13 10 10 5 5 6 7 7 7 6 5 5 6 5 5 4 4 4 4 4 5 5 5 5
3 3 2 2 2 2 2 2 2 1 2 3 4 6 8 8 9 11 12 9 6 6 5 6 6 7 7 7 7 6 6 6 6 5 4 3 3 4 4 5 6 7 6
1 1 1 1 1 1 1 1 1 1 1 1 3 4 7 7 7 8 8 4 5 5 6 6 6 7 7 7 7 7 6 6 7 6 4 3 2 3 4 4 5 7 6
1 1 0 1 1 2 2 2 1 1 1 1 2 3 4 5 4 5 4 4 4 5 5 6 6 7 7 7 7 7 7 7 7 6 6 4 2 2 2 3 3 4 5
2 2 1 1 2 2 2 2 2 2 1 0 1 2 4 3 4 5 5 4 4 5 5 6 6 6 7 6 6 7 8 7 6 6 6 5 3 1 1 1 1 2 2
2 2 2 2 2 3 3 2 2 2 2 1 1 2 4 3 4 4 4 4 4 4 4 5 5 5 5 6 6 7 7 7 7 7 7 5 3 2 1 1 2 2 3
4 4 4 3 3 4 4 3 3 2 2 1 1 2 3 4 4 5 5 5 5 5 4 4 5 5 6 5 5 5 5 6 6 6 6 5 4 3 2 2 3 4 4
4 4 4 3 3 3 3 3 2 2 2 2 3 3 3 4 4 5 5 5 5 5 5 5 5 7 10 8 6 5 5 6 6 5 5 4 4 4 3 4 4 5 5
4 4 4 3 3 3 3 3 3 3 3 3 4 4 4 4 5 5 5 5 6 6 7 7 6 7 10 11 10 9 10 10 8 6 5 4 5 5 5 5 5 5 5
4 4 4 3 3 3 3 3 3 4 4 4 4 4 4 5 5 6 6 7 7 7 7 7 10 10 11 10 11 12 10 10 10 9 5 4 6 6 5 5 6 5 5
Wind_Direction
94 93 93 95 98 97 99 103 106 99 89 73 56 45 39 38 40 46 42 35 27 10 359 348 324 311 301 295 284 271 259 254 282 285 253 267 275 279 289 286 283 276 275
97 94 91 92 91 88 86 81 78 70 59 58 63 70 74 68 59 52 32 22 6 345 331 323 312 311 301 285 275 265 260 251 259 283 282 271 270 275 278 281 291 289 281
95 94 89 86 85 83 79 77 75 72 65 65 74 82 83 77 66 53 33 6 341 320 310 305 300 300 297 289 280 271 267 270 255 269 279 267 266 275 283 286 288 286 290
91 89 84 81 81 80 78 75 70 69 69 72 82 95 98 93 76 40 10 346 329 315 305 298 293 290 285 285 286 275 275 275 270 270 275 275 269 268 268 279 288 279 281
87 81 76 74 73 74 73 70 69 70 75 76 84 99 116 108 63 24 350 338 325 315 309 301 296 305 308 307 304 295 289 282 279 276 277 279 276 273 271 270 280 282 275
77 74 71 70 70 72 75 76 74 66 58 60 66 69 36 4 321 344 347 328 316 310 307 304 303 304 306 309 307 304 299 293 289 282 281 280 280 273 273 274 277 281 283
70 70 76 80 77 77 86 78 74 65 57 57 49 33 354 301 303 333 341 334 312 304 300 302 308 308 309 299 300 302 298 292 287 283 280 278 278 275 276 277 274 275 276
74 82 93 100 94 87 82 77 67 59 52 37 13 3 356 344 353 348 340 332 309 302 301 299 299 301 303 306 306 299 292 288 284 282 271 271 273 274 272 277 281 279 273
95 100 99 104 101 92 85 75 63 58 35 12 6 16 22 1 359 345 344 321 310 308 306 305 306 304 308 315 313 303 299 297 297 288 278 280 280 282 284 284 285 292 295
101 92 93 100 102 100 94 77 49 51 38 27 25 24 25 353 339 342 344 320 315 315 310 307 310 311 316 321 320 308 304 305 308 309 305 301 297 298 307 302 304 302 305
102 95 96 101 103 100 84 65 55 51 44 32 20 359 349 337 333 336 338 332 317 314 312 313 313 318 322 324 323 318 315 312 306 305 307 312 317 320 320 315 309 302 303
104 99 95 92 92 94 86 61 54 56 43 17 0 344 331 328 329 331 332 329 326 314 311 312 314 319 324 325 326 328 330 329 319 318 319 322 327 329 321 316 315 314 310
106 106 102 96 90 100 101 84 56 46 39 4 352 338 325 323 324 330 330 327 329 326 312 317 322 325 328 327 326 331 335 335 330 327 323 314 306 308 317 322 324 326 330
116 118 118 113 105 97 102 115 106 72 33 356 341 328 319 318 323 331 327 322 326 329 324 321 323 326 331 327 328 334 334 328 324 321 319 312 310 329 340 339 338 345 347
118 125 134 144 157 167 177 187 179 203 197 209 267 285 306 317 321 327 328 323 326 327 324 322 330 333 335 336 338 337 334 336 336 331 332 339 348 1 358 348 352 355 5
123 140 158 175 197 201 210 274 259 238 239 240 253 276 291 299 323 337 342 343 346 344 344 336 335 334 335 337 339 338 335 338 337 339 346 356 7 12 9 5 9 16 19
142 169 193 208 216 216 209 214 282 307 289 281 287 302 317 330 344 348 347 342 345 351 351 339 336 337 339 342 344 345 340 335 339 348 359 9 18 20 21 22 22 25 30
160 192 203 230 236 227 214 202 202 217 333 333 328 338 348 351 348 349 347 347 350 353 346 340 338 339 340 344 347 347 343 345 350 354 0 15 26 26 29 33 32 32 35
173 213 236 244 237 185 160 150 142 121 75 9 356 351 351 343 336 343 348 353 342 341 340 339 338 338 341 345 347 347 346 350 353 354 357 9 34 40 40 40 41 35 37
266 264 180 116 68 80 101 111 113 106 88 49 14 344 337 344 347 344 345 340 340 337 337 337 338 340 343 346 348 348 350 353 355 354 351 357 27 71 72 60 53 50 45
252 262 201 81 75 90 103 111 118 116 119 95 319 326 347 346 341 339 339 340 338 336 335 334 337 341 344 345 347 348 350 350 351 350 350 351 4 69 112 117 95 69 57
87 102 104 98 93 92 97 96 94 92 91 78 313 327 343 346 339 341 342 339 334 326 325 326 330 332 333 338 342 343 345 347 348 348 346 347 357 27 66 83 85 74 64
85 84 80 82 87 89 83 78 86 89 81 50 358 0 357 354 351 351 349 344 341 338 334 334 335 338 337 332 333 334 333 328 322 319 328 340 356 14 42 72 92 95 87
84 87 88 88 84 82 82 75 73 76 68 37 22 22 12 3 358 359 357 351 349 348 347 346 346 346 347 345 337 333 324 317 311 308 321 344 2 16 37 59 79 101 103
78 80 84 89 88 82 77 72 65 58 51 45 38 30 19 14 8 3 1 359 360 2 3 360 355 354 350 346 344 337 329 331 339 340 341 2 20 29 43 57 76 95 105
66 69 74 79 78 78 80 76 66 62 57 52 46 38 30 23 15 8 5 6 6 5 5 3 357 358 357 351 342 337 337 343 350 357 4 21 34 39 45 54 69 81 94